Regional Weather Roundup
Issued by NWS

Home | Current Version | Previous Version | Graphics & Text | Print | Product List | Glossary On
Versions: 1 2 3 4 5 6 7 8 9 10 11 12 13 14 15 16 17 18 19 20 21 22 23 24 25 26 27 28 29 30 31 32 33 34 35 36 37 38 39 40 41 42 43 44 45 46 47 48 49 50
516
ASUS43 KDTX 271310
RWRMI
MICHIGAN HOURLY REGIONAL WEATHER ROUNDUP
NATIONAL WEATHER SERVICE DETROIT/PONTIAC MI
800 AM EST MON FEB 27 2017

NOTE: "FAIR" INDICATES FEW OR NO CLOUDS BELOW 12,000 FEET WITH NO
SIGNIFICANT WEATHER AND/OR OBSTRUCTION TO VISIBILITY.

MIZ047>049-052>055-059>063-066>070-074>076-081>083-271400-
SOUTHEAST LOWER MICHIGAN

CITY           SKY/WX    TMP DP  RH WIND       PRES   REMARKS
ADRIAN         CLEAR     29  23  78 SW5       30.19R WCI  24
ALMA           CLEAR     26  23  88 CALM      30.16R
ANN ARBOR      CLEAR     27  24  89 CALM      30.18R
BAD AXE        CLEAR     31  26  84 NW3       30.15R
CARO           CLEAR     31  26  82 SW5       30.15R WCI  26
DETROIT CITY   CLEAR     35  24  64 SW8       30.19R WCI  29
DETROIT        PTCLDY    32  24  72 SW5       30.20R WCI  27
FLINT          PTCLDY    33  25  72 SW7       30.17R WCI  27
GROSSE ILE     CLEAR     34  24  67 S3        30.19R
HILLSDALE      CLEAR     30  23  74 CALM      30.15S
HOWELL         CLEAR     32  23  68 CALM      30.17R

CITY           SKY/WX    TMP DP  RH WIND       PRES   REMARKS
JACKSON        CLEAR     34  25  69 W5        30.16R WCI  30
LAMBERTVILLE   CLEAR     32  23  70 CALM      30.20R
LANSING        CLEAR     31  23  72 SW6       30.17R WCI  25
LAPEER         FAIR      34  26  71 SW3       30.17R
MASON          CLEAR     33  26  74 CALM      30.16R
MONROE         CLEAR     32  24  71 S8        30.19R WCI  25
MT. CLEMENS    PTCLDY    35  24  64 SW7       30.17R WCI  29
PONTIAC        PTCLDY    32  23  69 W3        30.16R
PORT HOPE        N/A     32  26  78 N8        30.14R WCI  25
PORT HURON     CLEAR     34  25  69 SW3       30.19R
TRI CITIES     CLEAR     31  26  82 W3        30.16R
MIDLAND        FAIR      28  25  89 CALM      30.15R
TROY           CLEAR     33  22  65 SW5       30.20R WCI  28
SAGINAW HB     CLEAR     32  27  80 SW6       30.15R WCI  26
$$
MIZ043>046-050>051-056>058-064>065-071>073-077>080-271400-
SOUTHWEST LOWER MICHIGAN

CITY           SKY/WX    TMP DP  RH WIND       PRES   REMARKS
BATTLE CREEK   PTCLDY    31  25  78 S5        30.16R WCI  26
BENTON HARBOR  CLEAR     29  25  85 SE3       30.15S
BIG RAPIDS     CLEAR     26  24  91 CALM      30.12R
COLDWATER      CLEAR     31  24  74 SW5       30.16S WCI  27
FREMONT        FAIR      24  23  96 CALM      30.13R
HOLLAND        CLEAR     29  26  89 CALM      30.15R
GRAND RAPIDS   PTCLDY    28  25  88 S5        30.16R WCI  23
IONIA          FAIR      30  28  91 S3        30.15R
KALAMAZOO      PTCLDY    33  23  66 SW5       30.16R WCI  29
LUDINGTON      CLEAR     26  24  95 CALM      30.12R
MARSHALL       CLEAR     32  24  73 CALM      30.15R
MOUNT PLEASANT CLEAR     27  24  90 CALM      30.14R
MUSKEGON       CLEAR     26  23  88 SE5       30.15R WCI  20
SOUTH HAVEN    PTCLDY    30  29  94 CALM      30.15S
$$
MIZ016>042-271400-
NORTHERN LOWER MICHIGAN

CITY           SKY/WX    TMP DP  RH WIND       PRES   REMARKS
ALPENA         CLEAR     19  16  88 CALM      30.15R
BEAVER ISLAND  CLEAR     13  11  94 CALM      30.12R
BELLAIRE       CLEAR     19  18  93 CALM      30.14R
CADILLAC       PTCLDY    16  14  90 CALM      30.10R
CHARLEVOIX     CLEAR     17  13  81 S3        30.15R
FRANKFORT      CLEAR     18  15  90 CALM      30.13R
GAYLORD        CLEAR     18  12  77 CALM      30.09R
GRAYLING       PTCLDY    22  15  76 S3        30.12R
HARBOR SPRINGS CLEAR     14  11  87 NE3       30.12R
HOUGHTON LAKE  CLEAR     21  18  88 CALM      30.12R
MANISTEE       CLEAR     21  20  96 E5        30.13R WCI  15
OSCODA         PTCLDY    24  20  84 NW3       30.15R
PELLSTON       CLEAR      8   5  87 CALM      30.13R
ROGERS CITY    CLEAR     20  15  81 SW3       30.15R
TRAVERSE CITY  PTCLDY    23  17  78 CALM      30.13R
$$
MIZ007>008-015-271400-
EASTERN UPPER MICHIGAN

CITY           SKY/WX    TMP DP  RH WIND       PRES   REMARKS
KINROSS        CLEAR     13  10  88 SW3       30.10R
MACKINAC ISLAN CLEAR     17  13  88 W3        30.11R
NEWBERRY       CLEAR     10   8  92 SW6       30.08R WCI   0
S. S. MARIE    PTCLDY    14   9  80 S7        30.09R WCI   4
MUNISING         N/A      9   4  80 S9        30.08R WCI  -4
$$
MIZ004>006-011>014-085-271400-
CENTRAL UPPER MICHIGAN

CITY           SKY/WX    TMP DP  RH WIND       PRES   REMARKS
MANISTIQUE     PTCLDY     5   4  98 CALM      30.10R
ESCANABA       MOCLDY     6   4  91 CALM      30.11R
MENOMINEE      PTCLDY    18  12  77 S5        30.10S WCI  11
SAWYER-GWINN   CLEAR     -2  -4  92 CALM      30.04R
$$
MIZ001>003-009>011-084-271400-
WESTERN UPPER MICHIGAN

CITY           SKY/WX    TMP DP  RH WIND       PRES   REMARKS
IRON MOUNTAIN  CLOUDY     8   3  80 CALM      30.04R
HOUGHTON       CLOUDY    13   3  64 SW6       29.99R WCI   4
COPPER HARBOR    N/A      9   5  84 W7        30.02S WCI  -2
IRONWOOD       FLURRIES  17   9  70 S10       29.97F WCI   5
$$

ABBREVIATIONS USED IN REMARKS
   TC - TEMPERATURE IN CELSIUS
  WCI - WIND CHILL INDEX
   HX - HEAT INDEX
  VSB - VISIBILITY





USA.gov is the U.S. government's official web portal to all federal, state and local government web resources and services.